Current weather by "City, St" or "zip code"  
 

Current Conditions: Eastsound, Orcas Island Airport, WA

Overcast


57.0 F

Last Updated on Oct 29 2020, 2:55 pm PDT
Humidity: 82%
Wind Speed: SE 10.4 mph
Barometer 30.10 in
Dewpoint: 51.8 F
Visibility: 10.00 mi
Precip: --
Heat Index: NA
Wind Chill: 55 F
Current conditions at:

Eastsound, Orcas Island Airport, WA (KORS)

Lat: 48.70806 Lon: 122.91028

Local Radar Image active severe weather and emergency alerts image image weather storm and storm spotter reports image weather observation monitoring service image
Local
Radar
Active
Alerts
Storm Reports Obs
Monitoring

Sign-up For Email & Text Message Weather Alert Notification Services



Advertise Here

Observation History for Eastsound, Orcas Island Airport, WA


Time Wind
(mph)
Vis
(mi)
Weather Precip (in) Temperature (F) Relative
Humidity
Wind
Chill
(F)
Heat
Index
(F)
Pressure
Air Dwpt altimeter
(in)
sea level
(mb)
Rmks
2:55 pm PDT SE 10.4 10.00 Overcast -- 57.0 51.8 82% 55 NA 30.10 M
1:55 pm PDT SE 10.4 10.00 Overcast -- 57.0 51.8 82% 55 NA 30.11 M
12:55 pm PDT SE 9.2 10.00 Overcast -- 55.0 51.8 88% 52 NA 30.13 M
11:55 am PDT SE 10.4 10.00 Overcast -- 55.0 51.8 88% 52 NA 30.15 M
10:55 am PDT SE 11.5 G 18.4 10.00 Overcast -- 54.0 51.8 94% 51 NA 30.16 M
9:55 am PDT SE 16.1 10.00 Overcast -- 54.0 51.8 94% 50 NA 30.16 M
8:55 am PDT SE 12.7 10.00 Overcast -- 54.0 51.8 94% 50 NA 30.15 M
7:55 am PDT SE 16.1 10.00 Overcast -- 54.0 50.0 88% 50 NA 30.13 M
6:55 am PDT SE 12.7 10.00 Overcast -- 54.0 51.8 94% 50 NA 30.14 M
5:55 am PDT SE 10.4 G 16.1 10.00 Overcast -- 54.0 51.8 94% 51 NA 30.14 M
4:55 am PDT S 12.7 10.00 Overcast -- 54.0 51.8 94% 50 NA 30.15 M
3:55 am PDT S 9.2 10.00 Overcast -- 54.0 51.8 94% 51 NA 30.15 M
2:55 am PDT S 10.4 G 16.1 10.00 Overcast -- 54.0 51.8 94% 51 NA 30.15 M
1:55 am PDT S 12.7 G 20.7 10.00 Overcast -- 54.0 51.8 94% 50 NA 30.14 M
12:55 am PDT S 13.8 10.00 Overcast -- 54.0 50.0 88% 50 NA 30.14 M
11:15 pm PDT S 10.4 G 18.4 10.00 Overcast -- 54.0 50.0 88% 51 NA 30.13 M
10:55 pm PDT S 12.7 10.00 Mostly Cloudy -- 54.0 50.0 88% 50 NA 30.13 M
9:55 pm PDT S 12.7 10.00 A Few Clouds -- 54.0 50.0 88% 50 NA 30.13 M
8:55 pm PDT S 9.2 10.00 Overcast -- 54.0 50.0 88% 51 NA 30.13 M
7:55 pm PDT S 12.7 10.00 Overcast -- 54.0 50.0 88% 50 NA 30.13 M
6:55 pm PDT S 9.2 G 15.0 10.00 Mostly Cloudy -- 54.0 50.0 88% 51 NA 30.13 M
5:55 pm PDT S 12.7 10.00 Mostly Cloudy -- 54.0 50.0 88% 50 NA 30.13 M
4:55 pm PDT S 11.5 10.00 Overcast -- 55.0 50.0 82% 52 NA 30.14 M
3:55 pm PDT S 13.8 10.00 Overcast -- 57.0 50.0 77% 54 NA 30.15 M

Regional Weather Observation


Friday Harbor Airport, WA (KFHR)

Overcast
55.0 F

Bellingham, Bellingham International Airport, WA (KBLI)

Overcast
57.0 F

Whidbey Island Naval Air Station - Ault Field, WA (KNUW)

Overcast
59.0 F

Burlington/Mount Vernon, Skagit Regional Airport, WA (KBVS)

Overcast
61.0 F

Port Angeles Fairchild International Airport, WA (KCLM)

Fair
58.0 F

Arlington Municipal Airport, WA (KAWO)

Fair
59.0 F